Location: *
(60.1759°S, 155.0663°W)
Time: 14:04:44
(UTC+00:00)

Cosmos 2026 Rocket - Pass Details

Date: 17 September 2019
Orbit: 940 x 1001 km, 82.9° (Epoch: 14 October)

Event Time Altitude Azimuth Distance (km) Brightness Sun altitude
Rises 13:53:47 0° 194° (SSW) 3,650 7.2 -18.7°
Reaches altitude 10° 13:56:22 10° 199° (SSW) 2,699 6.4 -18.4°
Maximum altitude 14:02:12 46° 270° (W) 1,262 4.2 -17.8°
Enters shadow 14:06:09 20° 333° (NNW) 2,056 5.2 -17.4°
